Regional Weather Roundup
Issued by NWS New Orleans/Baton Rouge, LA

Home | Current Version | Previous Version | Graphics & Text | Print | Product List | Glossary On
Versions: 1 2 3 4 5 6 7 8 9 10 11 12 13 14 15 16 17 18 19 20 21 22 23 24 25 26 27 28 29 30 31 32 33 34 35 36 37 38 39 40 41 42 43 44 45 46 47 48 49 50
145
ASUS44 KLIX 281601
RWRLIX
NEW ORLEANS REGIONAL WEATHER ROUNDUP
NATIONAL WEATHER SERVICE NEW ORLEANS LA
1000 AM CST WED JAN 28 2015

NOTE: "FAIR" INDICATES FEW OR NO CLOUDS BELOW 12,000 FEET WITH NO
      SIGNIFICANT WEATHER AND/OR OBSTRUCTIONS TO VISIBILITY.
      SKY/WX - SKY CONDITION AND SIGNIFICANT WEATHER.
      TMP - AIR TEMPERATURE.     DP    - DEWPOINT TEMPERATURE.
      RH  - RELATIVE HUMIDITY.   PRES  - PRESSURE.
      HI  - HEAT INDEX.          WCI   - WIND CHILL INDEX.

*  THESE STATIONS ARE NOT NWS OR FAA STATIONS AND ARE NOT UNDER
   NWS QUALITY CONTROL.

LAZ038-040-048-061>063-065>067-069-281700-
SOUTHEAST LOUISIANA

CITY           SKY/WX    TMP DP  RH WIND       PRES   REMARKS
N.O. AUDUBON     N/A     58  41  53 MISG        N/A
N.O. INTL ARPT SUNNY     58  40  51 E10       30.30R
N.O. LAKEFRONT SUNNY     57  40  52 E12       30.31R
N.O. DOWNTOWN*   N/A     55  37  50 E5        30.31R
SLIDELL        SUNNY     55  35  47 VRB7      30.30R
BATON ROUGE    SUNNY     57  37  47 E9        30.28S
BOOTHVILLE     SUNNY     58  47  66 NE8       30.31R
BELLE CHASSE   SUNNY     59  39  47 E10       30.30R
BOGALUSA*        N/A     56  35  46 E8        30.32R
GALLIANO*      NOT AVBL
NEW ROADS*     NOT AVBL
GONZALES*      NOT AVBL
HAMMOND*       NOT AVBL
HOUMA*         SUNNY     59  46  63 E17       30.28R
PORT FOURCHON* SUNNY     61  50  67 E14G22    30.31S

$$

MSZ070-080>082-281700-
SOUTHERN MISSISSIPPI

CITY           SKY/WX    TMP DP  RH WIND       PRES   REMARKS
MCCOMB         SUNNY     54  36  50 SE7       30.30R
GULFPORT       SUNNY     53  34  48 E7        30.30R
BILOXI         SUNNY     54  35  48 E7        30.29S
PASCAGOULA     SUNNY     53  36  52 E8        30.30S
STENNIS ARPT*  SUNNY     55  30  38 E6        30.31R

$$

COASTAL OBSERVATIONS
LAKE AND NEARSHORE STATIONS

STATION/POSITION TIME  TEMP    WIND        PRES    WAVE
                       AIR SEA DIR/SP/G            HT/PER
                 (UTC) (F)     (DEG/KT/KT) (MB)    (FT/S)
PASCAGOULA       1519   50      60/  8/ 10 1025.5
WAVELAND YACHT   1519   51      70/  8/  9 1024.8
GRAND ISLE       1519   58 58   80/ 11/ 16 1025.6
SOUTHWEST PASS   1519   57 45   50/ 14/ 15 1025.3
NEW CANAL        1519   54 53   90/  4/ 10 1026.0
SHELL BEACH      1519   53 54   70/ 13/ 15 1025.5

OFFSHORE STATIONS

STATION/POSITION TIME  TEMP    WIND        PRES    WAVE
                       AIR SEA DIR/SP/G            HT/PER
                 (UTC) (F)     (DEG/KT/KT) (MB)    (FT/S)
64 S DAUPHIN ISL 1507   59 67   40/ 16/ 17 1025.7    3/ 5

$$




USA.gov is the U.S. government's official web portal to all federal, state and local government web resources and services.